Time,TemperatureF,DewpointF,PressureIn,WindDirection,WindDirectionDegrees,WindSpeedMPH,WindSpeedGustMPH,Humidity,HourlyPrecipIn,Conditions,Clouds,dailyrainin,SoftwareType,DateUTC
2013-08-21 00:00:00,69.7,66.0,29.88,East,82,0.0,0.0,88,0.00,,CLR,0.00,VWS V14.01,2013-08-21 05:00:00,
2013-08-21 00:04:00,69.7,66.0,29.88,East,82,0.0,0.0,88,0.00,,CLR,0.00,VWS V14.01,2013-08-21 05:04:00,
2013-08-21 00:09:00,69.7,66.0,29.88,East,82,0.0,0.0,88,0.00,,CLR,0.00,VWS V14.01,2013-08-21 05:09:00,
2013-08-21 00:14:00,69.7,66.0,29.88,East,82,0.0,0.0,88,0.00,,CLR,0.00,VWS V14.01,2013-08-21 05:14:00,
2013-08-21 00:19:00,69.6,65.9,29.88,East,82,0.0,0.0,88,0.00,,CLR,0.00,VWS V14.01,2013-08-21 05:19:00,
2013-08-21 00:24:00,69.5,65.8,29.88,East,82,0.0,0.0,88,0.00,,CLR,0.00,VWS V14.01,2013-08-21 05:24:00,
2013-08-21 00:29:00,69.4,65.7,29.88,East,82,0.0,0.0,88,0.00,,CLR,0.00,VWS V14.01,2013-08-21 05:29:00,
2013-08-21 00:30:00,69.4,65.7,29.88,East,82,0.0,0.0,88,0.00,,CLR,0.00,VWS V14.01,2013-08-21 05:30:00,
2013-08-21 00:34:00,69.4,66.0,29.88,East,82,0.0,0.0,89,0.00,,CLR,0.00,VWS V14.01,2013-08-21 05:34:00,
2013-08-21 00:39:00,69.2,65.5,29.88,East,82,0.0,0.0,88,0.00,,CLR,0.00,VWS V14.01,2013-08-21 05:39:00,
2013-08-21 00:44:00,69.1,65.7,29.88,East,82,0.0,0.0,89,0.00,,CLR,0.00,VWS V14.01,2013-08-21 05:44:00,
2013-08-21 00:49:00,69.0,65.6,29.88,East,82,0.0,0.0,89,0.00,,CLR,0.00,VWS V14.01,2013-08-21 05:49:00,
2013-08-21 00:54:00,68.9,65.5,29.88,East,82,0.0,0.0,89,0.00,,CLR,0.00,VWS V14.01,2013-08-21 05:54:00,
2013-08-21 01:00:00,68.8,65.4,29.87,East,82,0.0,0.0,89,0.00,,CLR,0.00,VWS V14.01,2013-08-21 06:00:00,
2013-08-21 01:05:00,68.7,65.3,29.87,East,82,0.0,0.0,89,0.00,,CLR,0.00,VWS V14.01,2013-08-21 06:05:00,
2013-08-21 01:10:00,68.5,65.1,29.87,East,82,0.0,0.0,89,0.00,,CLR,0.00,VWS V14.01,2013-08-21 06:10:00,
2013-08-21 01:15:00,68.4,65.0,29.87,East,82,0.0,0.0,89,0.00,,CLR,0.00,VWS V14.01,2013-08-21 06:15:00,
2013-08-21 01:20:00,68.3,65.3,29.88,East,82,0.0,0.0,90,0.00,,CLR,0.00,VWS V14.01,2013-08-21 06:20:00,
2013-08-21 01:25:00,68.2,65.2,29.87,East,82,0.0,0.0,90,0.00,,CLR,0.00,VWS V14.01,2013-08-21 06:25:00,
2013-08-21 01:30:00,68.1,65.1,29.88,East,82,0.0,0.0,90,0.00,,CLR,0.00,VWS V14.01,2013-08-21 06:30:00,
2013-08-21 01:35:00,68.1,65.1,29.87,East,82,0.0,0.0,90,0.00,,CLR,0.00,VWS V14.01,2013-08-21 06:35:00,
2013-08-21 01:40:00,68.0,65.0,29.87,East,82,0.0,0.0,90,0.00,,CLR,0.00,VWS V14.01,2013-08-21 06:40:00,
2013-08-21 01:45:00,67.9,65.2,29.87,East,82,0.0,0.0,91,0.00,,CLR,0.00,VWS V14.01,2013-08-21 06:45:00,
2013-08-21 01:50:00,67.9,65.5,29.87,East,82,0.0,0.0,92,0.00,,CLR,0.00,VWS V14.01,2013-08-21 06:50:00,
2013-08-21 01:55:00,68.0,65.6,29.88,East,82,0.0,0.0,92,0.00,,CLR,0.00,VWS V14.01,2013-08-21 06:55:00,
2013-08-21 02:00:00,68.0,65.6,29.88,East,82,0.0,0.0,92,0.00,,CLR,0.00,VWS V14.01,2013-08-21 07:00:00,
2013-08-21 02:01:00,68.0,65.6,29.88,East,82,0.0,0.0,92,0.00,,CLR,0.00,VWS V14.01,2013-08-21 07:01:00,
2013-08-21 02:06:00,68.0,65.6,29.87,East,82,0.0,0.0,92,0.00,,CLR,0.00,VWS V14.01,2013-08-21 07:06:00,
2013-08-21 02:11:00,67.9,65.5,29.87,East,82,0.0,0.0,92,0.00,,CLR,0.00,VWS V14.01,2013-08-21 07:11:00,
2013-08-21 02:16:00,67.9,65.5,29.87,East,82,0.0,0.0,92,0.00,,CLR,0.00,VWS V14.01,2013-08-21 07:16:00,
2013-08-21 02:21:00,67.8,65.4,29.87,East,82,0.0,0.0,92,0.00,,CLR,0.00,VWS V14.01,2013-08-21 07:21:00,
2013-08-21 02:26:00,67.8,65.4,29.87,East,82,0.0,0.0,92,0.00,,CLR,0.00,VWS V14.01,2013-08-21 07:26:00,
2013-08-21 02:30:00,67.7,65.3,29.87,East,82,0.0,0.0,92,0.00,,CLR,0.00,VWS V14.01,2013-08-21 07:30:00,
2013-08-21 02:31:00,67.7,65.3,29.87,East,82,0.0,0.0,92,0.00,,CLR,0.00,VWS V14.01,2013-08-21 07:31:00,
2013-08-21 02:36:00,67.6,65.2,29.87,East,82,0.0,0.0,92,0.00,,CLR,0.00,VWS V14.01,2013-08-21 07:36:00,
2013-08-21 02:41:00,67.5,65.1,29.87,East,82,0.0,0.0,92,0.00,,CLR,0.00,VWS V14.01,2013-08-21 07:41:00,
2013-08-21 02:46:00,67.4,65.0,29.87,East,82,0.0,0.0,92,0.00,,CLR,0.00,VWS V14.01,2013-08-21 07:46:00,
2013-08-21 02:51:00,67.4,65.3,29.87,East,82,0.0,0.0,93,0.00,,CLR,0.00,VWS V14.01,2013-08-21 07:51:00,
2013-08-21 02:56:00,67.4,65.3,29.87,East,82,0.0,0.0,93,0.00,,CLR,0.00,VWS V14.01,2013-08-21 07:56:00,
2013-08-21 03:00:00,67.4,65.3,29.87,East,82,0.0,0.0,93,0.00,,CLR,0.00,VWS V14.01,2013-08-21 08:00:00,
2013-08-21 03:01:00,67.3,65.2,29.87,East,82,0.0,0.0,93,0.00,,CLR,0.00,VWS V14.01,2013-08-21 08:01:00,
2013-08-21 03:07:00,67.3,65.2,29.88,East,82,0.0,0.0,93,0.00,,CLR,0.00,VWS V14.01,2013-08-21 08:07:00,
2013-08-21 03:12:00,67.3,65.2,29.87,East,82,0.0,0.0,93,0.00,,CLR,0.00,VWS V14.01,2013-08-21 08:12:00,
2013-08-21 03:17:00,67.3,65.5,29.88,East,82,0.0,0.0,94,0.00,,CLR,0.00,VWS V14.01,2013-08-21 08:17:00,
2013-08-21 03:22:00,67.3,65.5,29.88,East,82,0.0,0.0,94,0.00,,CLR,0.00,VWS V14.01,2013-08-21 08:22:00,
2013-08-21 03:27:00,67.3,65.5,29.88,East,82,0.0,0.0,94,0.00,,CLR,0.00,VWS V14.01,2013-08-21 08:27:00,
2013-08-21 03:30:00,67.3,65.5,29.88,East,82,0.0,0.0,94,0.00,,CLR,0.00,VWS V14.01,2013-08-21 08:30:00,
2013-08-21 03:32:00,67.3,65.2,29.88,East,82,0.0,0.0,93,0.00,,CLR,0.00,VWS V14.01,2013-08-21 08:32:00,
2013-08-21 03:37:00,67.2,65.1,29.88,East,82,0.0,0.0,93,0.00,,CLR,0.00,VWS V14.01,2013-08-21 08:37:00,
2013-08-21 03:42:00,67.2,65.4,29.88,East,82,0.0,0.0,94,0.00,,CLR,0.00,VWS V14.01,2013-08-21 08:42:00,
2013-08-21 03:47:00,67.1,65.3,29.88,East,82,0.0,0.0,94,0.00,,CLR,0.00,VWS V14.01,2013-08-21 08:47:00,
2013-08-21 03:52:00,67.1,65.3,29.88,East,82,0.0,0.0,94,0.00,,CLR,0.00,VWS V14.01,2013-08-21 08:52:00,
2013-08-21 03:57:00,67.2,65.4,29.88,East,82,0.0,0.0,94,0.00,,CLR,0.00,VWS V14.01,2013-08-21 08:57:00,
2013-08-21 04:00:00,67.2,65.4,29.88,East,82,0.0,0.0,94,0.00,,CLR,0.00,VWS V14.01,2013-08-21 09:00:00,
2013-08-21 04:02:00,67.3,65.5,29.88,East,82,0.0,0.0,94,0.00,,CLR,0.00,VWS V14.01,2013-08-21 09:02:00,
2013-08-21 04:07:00,67.3,65.5,29.88,East,82,0.0,0.0,94,0.00,,CLR,0.00,VWS V14.01,2013-08-21 09:07:00,
2013-08-21 04:13:00,67.4,65.6,29.88,East,82,0.0,0.0,94,0.00,,CLR,0.00,VWS V14.01,2013-08-21 09:13:00,
2013-08-21 04:18:00,67.5,65.7,29.88,East,82,0.0,0.0,94,0.00,,CLR,0.00,VWS V14.01,2013-08-21 09:18:00,
2013-08-21 04:23:00,67.5,65.7,29.88,East,82,0.0,0.0,94,0.00,,CLR,0.00,VWS V14.01,2013-08-21 09:23:00,
2013-08-21 04:28:00,67.4,65.6,29.89,East,82,0.0,0.0,94,0.00,,CLR,0.00,VWS V14.01,2013-08-21 09:28:00,
2013-08-21 04:30:00,67.4,65.3,29.89,East,82,0.0,0.0,93,0.00,,CLR,0.00,VWS V14.01,2013-08-21 09:30:00,
2013-08-21 04:33:00,67.4,65.3,29.89,East,82,0.0,0.0,93,0.00,,CLR,0.00,VWS V14.01,2013-08-21 09:33:00,
2013-08-21 04:38:00,67.2,65.1,29.89,East,82,0.0,0.0,93,0.00,,CLR,0.00,VWS V14.01,2013-08-21 09:38:00,
2013-08-21 04:43:00,67.2,65.1,29.89,East,82,0.0,0.0,93,0.00,,CLR,0.00,VWS V14.01,2013-08-21 09:43:00,
2013-08-21 04:48:00,67.0,64.9,29.89,East,82,0.0,0.0,93,0.00,,CLR,0.00,VWS V14.01,2013-08-21 09:48:00,
2013-08-21 04:53:00,66.9,65.1,29.89,East,82,0.0,0.0,94,0.00,,CLR,0.00,VWS V14.01,2013-08-21 09:53:00,
2013-08-21 04:58:00,66.8,65.0,29.89,East,82,0.0,0.0,94,0.00,,CLR,0.00,VWS V14.01,2013-08-21 09:58:00,
2013-08-21 05:00:00,66.8,65.0,29.89,East,82,0.0,0.0,94,0.00,,CLR,0.00,VWS V14.01,2013-08-21 10:00:00,
2013-08-21 05:03:00,66.7,64.9,29.89,East,82,0.0,0.0,94,0.00,,CLR,0.00,VWS V14.01,2013-08-21 10:03:00,
2013-08-21 05:08:00,66.6,64.8,29.89,East,82,0.0,0.0,94,0.00,,CLR,0.00,VWS V14.01,2013-08-21 10:08:00,
2013-08-21 05:13:00,66.5,64.7,29.88,East,82,0.0,0.0,94,0.00,,CLR,0.00,VWS V14.01,2013-08-21 10:13:00,
2013-08-21 05:19:00,66.5,65.0,29.89,East,82,0.0,0.0,95,0.00,,CLR,0.00,VWS V14.01,2013-08-21 10:19:00,
2013-08-21 05:24:00,66.5,65.0,29.89,East,82,0.0,0.0,95,0.00,,CLR,0.00,VWS V14.01,2013-08-21 10:24:00,
2013-08-21 05:29:00,66.4,64.9,29.89,East,82,0.0,0.0,95,0.00,,CLR,0.00,VWS V14.01,2013-08-21 10:29:00,
2013-08-21 05:30:00,66.4,64.6,29.89,East,82,0.0,0.0,94,0.00,,CLR,0.00,VWS V14.01,2013-08-21 10:30:00,
2013-08-21 05:34:00,66.3,64.8,29.89,East,82,0.0,0.0,95,0.00,,CLR,0.00,VWS V14.01,2013-08-21 10:34:00,
2013-08-21 05:39:00,66.2,64.7,29.89,East,82,0.0,0.0,95,0.00,,CLR,0.00,VWS V14.01,2013-08-21 10:39:00,
2013-08-21 05:44:00,66.1,64.6,29.89,East,82,0.0,0.0,95,0.00,,CLR,0.00,VWS V14.01,2013-08-21 10:44:00,
2013-08-21 05:49:00,66.1,64.6,29.89,East,82,0.0,0.0,95,0.00,,CLR,0.00,VWS V14.01,2013-08-21 10:49:00,
2013-08-21 05:54:00,66.1,64.6,29.89,East,82,0.0,0.0,95,0.00,,CLR,0.00,VWS V14.01,2013-08-21 10:54:00,
2013-08-21 05:59:00,66.1,64.6,29.89,East,82,0.0,0.0,95,0.00,,CLR,0.00,VWS V14.01,2013-08-21 10:59:00,
2013-08-21 06:00:00,66.1,64.6,29.89,East,82,0.0,0.0,95,0.00,,CLR,0.00,VWS V14.01,2013-08-21 11:00:00,
2013-08-21 06:04:00,66.1,64.6,29.89,East,82,0.0,0.0,95,0.00,,CLR,0.00,VWS V14.01,2013-08-21 11:04:00,
2013-08-21 06:09:00,66.1,64.6,29.89,East,82,0.0,0.0,95,0.00,,CLR,0.00,VWS V14.01,2013-08-21 11:09:00,
2013-08-21 06:14:00,66.0,64.5,29.90,East,82,0.0,0.0,95,0.00,,CLR,0.00,VWS V14.01,2013-08-21 11:14:00,
2013-08-21 06:19:00,65.9,64.4,29.90,East,82,0.0,0.0,95,0.00,,CLR,0.00,VWS V14.01,2013-08-21 11:19:00,
2013-08-21 06:25:00,65.9,64.4,29.90,East,82,0.0,0.0,95,0.00,,CLR,0.00,VWS V14.01,2013-08-21 11:25:00,
2013-08-21 06:30:00,65.9,64.7,29.90,East,82,0.0,0.0,96,0.00,,CLR,0.00,VWS V14.01,2013-08-21 11:30:00,
2013-08-21 06:35:00,65.8,64.6,29.90,East,82,0.0,0.0,96,0.00,,CLR,0.00,VWS V14.01,2013-08-21 11:35:00,
2013-08-21 06:40:00,65.8,64.6,29.91,East,82,0.0,0.0,96,0.00,,CLR,0.00,VWS V14.01,2013-08-21 11:40:00,
2013-08-21 06:45:00,65.8,64.6,29.91,East,82,0.0,0.0,96,0.00,,CLR,0.00,VWS V14.01,2013-08-21 11:45:00,
2013-08-21 06:50:00,65.8,64.6,29.91,East,82,0.0,0.0,96,0.00,,CLR,0.00,VWS V14.01,2013-08-21 11:50:00,
2013-08-21 06:55:00,65.9,64.7,29.91,East,82,0.0,0.0,96,0.00,,CLR,0.00,VWS V14.01,2013-08-21 11:55:00,
2013-08-21 07:00:00,65.9,64.7,29.91,East,82,0.0,0.0,96,0.00,,CLR,0.00,VWS V14.01,2013-08-21 12:00:00,
2013-08-21 07:05:00,65.9,64.7,29.91,East,82,0.0,0.0,96,0.00,,CLR,0.00,VWS V14.01,2013-08-21 12:05:00,
2013-08-21 07:10:00,66.1,65.2,29.91,East,82,0.0,0.0,97,0.00,,CLR,0.00,VWS V14.01,2013-08-21 12:10:00,
2013-08-21 07:15:00,66.2,65.0,29.92,East,82,0.0,0.0,96,0.00,,CLR,0.00,VWS V14.01,2013-08-21 12:15:00,
2013-08-21 07:20:00,66.3,65.4,29.92,East,82,0.0,0.0,97,0.00,,CLR,0.00,VWS V14.01,2013-08-21 12:20:00,
2013-08-21 07:25:00,66.4,65.5,29.92,East,82,0.0,0.0,97,0.00,,CLR,0.00,VWS V14.01,2013-08-21 12:25:00,
2013-08-21 07:30:00,66.8,65.9,29.92,East,82,0.0,0.0,97,0.00,,CLR,0.00,VWS V14.01,2013-08-21 12:30:00,
2013-08-21 07:31:00,66.9,66.0,29.92,East,82,0.0,0.0,97,0.00,,CLR,0.00,VWS V14.01,2013-08-21 12:31:00,
2013-08-21 07:36:00,67.5,66.9,29.92,East,82,0.0,0.0,98,0.00,,CLR,0.00,VWS V14.01,2013-08-21 12:36:00,
2013-08-21 07:41:00,68.0,67.4,29.92,SE,144,0.0,0.0,98,0.00,,CLR,0.00,VWS V14.01,2013-08-21 12:41:00,
2013-08-21 07:46:00,68.5,67.6,29.93,SE,144,0.0,0.0,97,0.00,,CLR,0.00,VWS V14.01,2013-08-21 12:46:00,
2013-08-21 07:51:00,68.8,67.6,29.93,SE,144,0.0,0.0,96,0.00,,CLR,0.00,VWS V14.01,2013-08-21 12:51:00,
2013-08-21 07:56:00,69.1,67.9,29.93,SE,144,0.0,0.0,96,0.00,,CLR,0.00,VWS V14.01,2013-08-21 12:56:00,
2013-08-21 08:00:00,69.3,68.1,29.93,SE,144,0.0,0.0,96,0.00,,CLR,0.00,VWS V14.01,2013-08-21 13:00:00,
2013-08-21 08:01:00,69.4,68.2,29.93,SE,144,0.0,0.0,96,0.00,,CLR,0.00,VWS V14.01,2013-08-21 13:01:00,
2013-08-21 08:06:00,69.6,68.4,29.93,SE,144,0.0,0.0,96,0.00,,CLR,0.00,VWS V14.01,2013-08-21 13:06:00,
2013-08-21 08:11:00,69.8,68.3,29.93,SE,144,0.0,0.0,95,0.00,,CLR,0.00,VWS V14.01,2013-08-21 13:11:00,
2013-08-21 08:16:00,70.1,68.6,29.93,SE,144,0.0,0.0,95,0.00,,CLR,0.00,VWS V14.01,2013-08-21 13:16:00,
2013-08-21 08:21:00,70.3,68.5,29.93,SE,144,0.0,0.0,94,0.00,,CLR,0.00,VWS V14.01,2013-08-21 13:21:00,
2013-08-21 08:26:00,70.5,68.4,29.93,SE,144,0.0,0.0,93,0.00,,CLR,0.00,VWS V14.01,2013-08-21 13:26:00,
2013-08-21 08:30:00,70.6,68.5,29.93,SE,144,0.0,0.0,93,0.00,,CLR,0.00,VWS V14.01,2013-08-21 13:30:00,
2013-08-21 08:31:00,70.8,68.4,29.93,SE,144,0.0,0.0,92,0.00,,CLR,0.00,VWS V14.01,2013-08-21 13:31:00,
2013-08-21 08:36:00,71.1,68.7,29.93,SE,144,0.0,0.0,92,0.00,,CLR,0.00,VWS V14.01,2013-08-21 13:36:00,
2013-08-21 08:42:00,71.5,68.7,29.93,SE,144,0.0,0.0,91,0.00,,CLR,0.00,VWS V14.01,2013-08-21 13:42:00,
2013-08-21 08:47:00,71.9,68.5,29.93,SSE,168,0.0,1.0,89,0.00,,CLR,0.00,VWS V14.01,2013-08-21 13:47:00,
2013-08-21 08:52:00,72.3,68.9,29.93,SSE,168,0.0,1.0,89,0.00,,CLR,0.00,VWS V14.01,2013-08-21 13:52:00,
2013-08-21 08:57:00,72.8,69.0,29.93,SSE,168,0.0,1.0,88,0.00,,CLR,0.00,VWS V14.01,2013-08-21 13:57:00,
2013-08-21 09:00:00,72.9,69.1,29.93,SSE,168,0.0,1.0,88,0.00,,CLR,0.00,VWS V14.01,2013-08-21 14:00:00,
2013-08-21 09:02:00,73.1,69.0,29.93,SSE,168,0.0,0.0,87,0.00,,CLR,0.00,VWS V14.01,2013-08-21 14:02:00,
2013-08-21 09:07:00,73.6,69.8,29.93,ESE,111,0.0,1.0,88,0.00,,CLR,0.00,VWS V14.01,2013-08-21 14:07:00,
2013-08-21 09:12:00,74.0,69.6,29.93,ESE,117,0.0,1.0,86,0.00,,CLR,0.00,VWS V14.01,2013-08-21 14:12:00,
2013-08-21 09:17:00,74.7,70.9,29.93,SSE,154,0.0,1.0,88,0.00,,CLR,0.00,VWS V14.01,2013-08-21 14:17:00,
2013-08-21 09:22:00,75.5,70.7,29.93,SSE,159,0.0,1.0,85,0.00,,CLR,0.00,VWS V14.01,2013-08-21 14:22:00,
2013-08-21 09:27:00,76.1,70.9,29.93,SSE,159,0.0,1.0,84,0.00,,CLR,0.00,VWS V14.01,2013-08-21 14:27:00,
2013-08-21 09:30:00,76.4,70.9,29.93,SSE,159,0.0,1.0,83,0.00,,CLR,0.00,VWS V14.01,2013-08-21 14:30:00,
2013-08-21 09:32:00,76.8,71.6,29.93,SSE,168,0.0,1.0,84,0.00,,CLR,0.00,VWS V14.01,2013-08-21 14:32:00,
2013-08-21 09:37:00,77.3,71.4,29.93,SSE,168,0.0,1.0,82,0.00,,CLR,0.00,VWS V14.01,2013-08-21 14:37:00,
2013-08-21 09:42:00,78.0,71.7,29.94,ESE,117,0.0,1.0,81,0.00,,CLR,0.00,VWS V14.01,2013-08-21 14:42:00,
2013-08-21 09:48:00,78.5,72.2,29.94,South,171,0.0,1.0,81,0.00,,CLR,0.00,VWS V14.01,2013-08-21 14:48:00,
2013-08-21 09:53:00,79.0,71.9,29.94,SE,126,0.0,2.0,79,0.00,,CLR,0.00,VWS V14.01,2013-08-21 14:53:00,
2013-08-21 09:58:00,79.5,72.0,29.94,SE,129,0.0,2.0,78,0.00,,CLR,0.00,VWS V14.01,2013-08-21 14:58:00,
2013-08-21 10:00:00,79.6,71.4,29.94,East,96,2.0,2.0,76,0.00,,CLR,0.00,VWS V14.01,2013-08-21 15:00:00,
2013-08-21 10:03:00,79.7,72.2,29.94,SE,124,0.0,2.0,78,0.00,,CLR,0.00,VWS V14.01,2013-08-21 15:03:00,
2013-08-21 10:08:00,80.1,71.9,29.94,SSE,161,0.0,2.0,76,0.00,,CLR,0.00,VWS V14.01,2013-08-21 15:08:00,
2013-08-21 10:13:00,80.3,71.7,29.94,SSW,204,0.0,2.0,75,0.00,,CLR,0.00,VWS V14.01,2013-08-21 15:13:00,
2013-08-21 10:18:00,80.4,72.2,29.94,South,184,0.0,2.0,76,0.00,,CLR,0.00,VWS V14.01,2013-08-21 15:18:00,
2013-08-21 10:23:00,80.7,72.0,29.94,South,184,0.0,2.0,75,0.00,,CLR,0.00,VWS V14.01,2013-08-21 15:23:00,
2013-08-21 10:28:00,81.1,72.0,29.94,ESE,120,0.0,2.0,74,0.00,,CLR,0.00,VWS V14.01,2013-08-21 15:28:00,
2013-08-21 10:30:00,81.1,72.4,29.94,ESE,120,0.0,2.0,75,0.00,,CLR,0.00,VWS V14.01,2013-08-21 15:30:00,
2013-08-21 10:33:00,81.5,72.4,29.94,ESE,110,1.0,3.0,74,0.00,,CLR,0.00,VWS V14.01,2013-08-21 15:33:00,
2013-08-21 10:38:00,81.6,72.1,29.94,SSE,162,0.0,3.0,73,0.00,,CLR,0.00,VWS V14.01,2013-08-21 15:38:00,
2013-08-21 10:43:00,81.6,72.5,29.94,East,89,0.0,3.0,74,0.00,,CLR,0.00,VWS V14.01,2013-08-21 15:43:00,
2013-08-21 10:48:00,81.8,72.7,29.94,ESE,114,0.0,3.0,74,0.00,,CLR,0.00,VWS V14.01,2013-08-21 15:48:00,
2013-08-21 10:54:00,82.1,72.6,29.94,SSE,162,0.0,3.0,73,0.00,,CLR,0.00,VWS V14.01,2013-08-21 15:54:00,
2013-08-21 10:59:00,82.1,72.6,29.94,SSE,163,0.0,3.0,73,0.00,,CLR,0.00,VWS V14.01,2013-08-21 15:59:00,
2013-08-21 11:00:00,82.1,72.6,29.94,SSE,163,0.0,3.0,73,0.00,,CLR,0.00,VWS V14.01,2013-08-21 16:00:00,
2013-08-21 11:04:00,82.5,72.6,29.94,East,91,0.0,3.0,72,0.00,,CLR,0.00,VWS V14.01,2013-08-21 16:04:00,
2013-08-21 11:09:00,82.9,73.8,29.94,South,178,0.0,3.0,74,0.00,,CLR,0.00,VWS V14.01,2013-08-21 16:09:00,
2013-08-21 11:14:00,83.4,73.0,29.94,SSE,160,0.0,3.0,71,0.00,,CLR,0.00,VWS V14.01,2013-08-21 16:14:00,
2013-08-21 11:19:00,83.6,74.0,29.94,SSE,160,0.0,3.0,73,0.00,,CLR,0.00,VWS V14.01,2013-08-21 16:19:00,
2013-08-21 11:24:00,83.7,72.9,29.94,SE,143,0.0,3.0,70,0.00,,CLR,0.00,VWS V14.01,2013-08-21 16:24:00,
2013-08-21 11:29:00,83.6,72.4,29.94,SSE,158,0.0,3.0,69,0.00,,CLR,0.00,VWS V14.01,2013-08-21 16:29:00,
2013-08-21 11:30:00,83.6,72.4,29.94,SSE,158,0.0,3.0,69,0.00,,CLR,0.00,VWS V14.01,2013-08-21 16:30:00,
2013-08-21 11:34:00,83.8,72.6,29.94,West,265,0.0,2.0,69,0.00,,CLR,0.00,VWS V14.01,2013-08-21 16:34:00,
2013-08-21 11:39:00,84.0,72.7,29.94,NW,316,0.0,4.0,69,0.00,,CLR,0.00,VWS V14.01,2013-08-21 16:39:00,
2013-08-21 11:44:00,84.5,72.8,29.94,NW,306,0.0,4.0,68,0.00,,CLR,0.00,VWS V14.01,2013-08-21 16:44:00,
2013-08-21 11:49:00,84.8,73.1,29.94,WSW,247,0.0,4.0,68,0.00,,CLR,0.00,VWS V14.01,2013-08-21 16:49:00,
2013-08-21 11:54:00,84.9,72.3,29.94,WSW,246,0.0,4.0,66,0.00,,CLR,0.00,VWS V14.01,2013-08-21 16:54:00,
2013-08-21 11:59:00,85.2,74.3,29.94,SE,146,0.0,0.0,70,0.00,,CLR,0.00,VWS V14.01,2013-08-21 16:59:00,
2013-08-21 12:00:00,85.2,74.3,29.94,SE,146,0.0,4.0,70,0.00,,CLR,0.00,VWS V14.01,2013-08-21 17:00:00,
2013-08-21 12:05:00,85.5,72.4,29.94,South,174,0.0,2.0,65,0.00,,CLR,0.00,VWS V14.01,2013-08-21 17:05:00,
2013-08-21 12:10:00,85.9,71.8,29.94,SE,131,0.0,3.0,63,0.00,,CLR,0.00,VWS V14.01,2013-08-21 17:10:00,
2013-08-21 12:15:00,86.1,72.0,29.94,WNW,300,0.0,3.0,63,0.00,,CLR,0.00,VWS V14.01,2013-08-21 17:15:00,
2013-08-21 12:20:00,86.3,72.2,29.93,ESE,114,0.0,3.0,63,0.00,,CLR,0.00,VWS V14.01,2013-08-21 17:20:00,
2013-08-21 12:25:00,86.5,72.4,29.93,ESE,119,0.0,3.0,63,0.00,,CLR,0.00,VWS V14.01,2013-08-21 17:25:00,
2013-08-21 12:30:00,86.6,72.0,29.93,ESE,114,0.0,1.0,62,0.00,,CLR,0.00,VWS V14.01,2013-08-21 17:30:00,
2013-08-21 12:35:00,86.8,72.7,29.93,SE,138,0.0,1.0,63,0.00,,CLR,0.00,VWS V14.01,2013-08-21 17:35:00,
2013-08-21 12:40:00,86.8,71.8,29.92,NNE,24,0.0,1.0,61,0.00,,CLR,0.00,VWS V14.01,2013-08-21 17:40:00,
2013-08-21 12:45:00,86.8,73.6,29.92,SSW,213,0.0,1.0,65,0.00,,CLR,0.00,VWS V14.01,2013-08-21 17:45:00,
2013-08-21 12:50:00,87.4,72.8,29.92,East,94,0.0,2.0,62,0.00,,CLR,0.00,VWS V14.01,2013-08-21 17:50:00,
2013-08-21 12:55:00,87.7,74.0,29.92,WSW,252,0.0,2.0,64,0.00,,CLR,0.00,VWS V14.01,2013-08-21 17:55:00,
2013-08-21 13:00:00,87.9,73.7,29.92,NW,315,2.0,2.0,63,0.00,,CLR,0.00,VWS V14.01,2013-08-21 18:00:00,
2013-08-21 13:05:00,88.2,72.1,29.92,WNW,303,0.0,2.0,59,0.00,,CLR,0.00,VWS V14.01,2013-08-21 18:05:00,
2013-08-21 13:11:00,87.7,71.1,29.92,WNW,297,0.0,2.0,58,0.00,,CLR,0.00,VWS V14.01,2013-08-21 18:11:00,
2013-08-21 13:16:00,87.4,71.8,29.92,ESE,102,0.0,2.0,60,0.00,,CLR,0.00,VWS V14.01,2013-08-21 18:16:00,
2013-08-21 13:21:00,87.4,70.3,29.92,ESE,119,0.0,2.0,57,0.00,,CLR,0.00,VWS V14.01,2013-08-21 18:21:00,
2013-08-21 13:26:00,87.9,71.8,29.92,NNW,327,0.0,2.0,59,0.00,,CLR,0.00,VWS V14.01,2013-08-21 18:26:00,
2013-08-21 13:30:00,88.1,71.0,29.92,North,360,0.0,3.0,57,0.00,,CLR,0.00,VWS V14.01,2013-08-21 18:30:00,
2013-08-21 13:31:00,88.1,72.0,29.91,North,360,0.0,1.0,59,0.00,,CLR,0.00,VWS V14.01,2013-08-21 18:31:00,
2013-08-21 13:36:00,87.7,70.6,29.92,NNE,28,0.0,1.0,57,0.00,,CLR,0.00,VWS V14.01,2013-08-21 18:36:00,
2013-08-21 13:41:00,87.4,71.3,29.91,SSE,160,0.0,1.0,59,0.00,,CLR,0.00,VWS V14.01,2013-08-21 18:41:00,
2013-08-21 13:46:00,87.4,71.3,29.91,SSE,160,0.0,1.0,59,0.00,,CLR,0.00,VWS V14.01,2013-08-21 18:46:00,
2013-08-21 13:51:00,87.3,70.7,29.91,SSW,201,1.0,1.0,58,0.00,,CLR,0.00,VWS V14.01,2013-08-21 18:51:00,
2013-08-21 13:56:00,87.2,69.1,29.91,NW,317,1.0,1.0,55,0.00,,CLR,0.00,VWS V14.01,2013-08-21 18:56:00,
2013-08-21 14:00:00,87.2,68.5,29.91,NW,317,0.0,1.0,54,0.00,,CLR,0.00,VWS V14.01,2013-08-21 19:00:00,
2013-08-21 14:01:00,87.1,66.2,29.90,NW,309,0.0,0.0,50,0.00,,CLR,0.00,VWS V14.01,2013-08-21 19:01:00,
2013-08-21 14:06:00,87.1,69.5,29.90,NW,319,2.0,2.0,56,0.00,,CLR,0.00,VWS V14.01,2013-08-21 19:06:00,
2013-08-21 14:11:00,87.0,68.4,29.90,WNW,289,1.0,3.0,54,0.00,,CLR,0.00,VWS V14.01,2013-08-21 19:11:00,
2013-08-21 14:17:00,87.2,70.1,29.90,West,281,1.0,5.0,57,0.00,,CLR,0.00,VWS V14.01,2013-08-21 19:17:00,
2013-08-21 14:22:00,87.2,69.6,29.90,West,281,0.0,5.0,56,0.00,,CLR,0.00,VWS V14.01,2013-08-21 19:22:00,
2013-08-21 14:27:00,87.1,70.0,29.90,South,180,0.0,5.0,57,0.00,,CLR,0.00,VWS V14.01,2013-08-21 19:27:00,
2013-08-21 14:30:00,87.0,68.9,29.89,South,180,0.0,5.0,55,0.00,,CLR,0.00,VWS V14.01,2013-08-21 19:30:00,
2013-08-21 14:32:00,87.0,69.9,29.89,WNW,292,1.0,2.0,57,0.00,,CLR,0.00,VWS V14.01,2013-08-21 19:32:00,
2013-08-21 14:37:00,87.0,68.4,29.89,NNW,339,1.0,3.0,54,0.00,,CLR,0.00,VWS V14.01,2013-08-21 19:37:00,
2013-08-21 14:42:00,87.0,68.4,29.89,SE,134,0.0,3.0,54,0.00,,CLR,0.00,VWS V14.01,2013-08-21 19:42:00,
2013-08-21 14:47:00,86.8,68.7,29.89,NW,315,0.0,3.0,55,0.00,,CLR,0.00,VWS V14.01,2013-08-21 19:47:00,
2013-08-21 14:52:00,86.5,69.5,29.89,NW,315,0.0,3.0,57,0.00,,CLR,0.00,VWS V14.01,2013-08-21 19:52:00,
2013-08-21 14:57:00,86.1,69.6,29.88,WNW,302,0.0,3.0,58,0.00,,CLR,0.00,VWS V14.01,2013-08-21 19:57:00,
2013-08-21 15:00:00,86.1,68.1,29.88,SSW,205,0.0,3.0,55,0.00,,CLR,0.00,VWS V14.01,2013-08-21 20:00:00,
2013-08-21 15:02:00,86.2,68.7,29.88,West,278,0.0,5.0,56,0.00,,CLR,0.00,VWS V14.01,2013-08-21 20:02:00,
2013-08-21 15:07:00,86.5,70.0,29.88,NE,34,0.0,5.0,58,0.00,,CLR,0.00,VWS V14.01,2013-08-21 20:07:00,
2013-08-21 15:12:00,86.8,69.8,29.88,NW,308,1.0,5.0,57,0.00,,CLR,0.00,VWS V14.01,2013-08-21 20:12:00,
2013-08-21 15:17:00,87.0,68.9,29.88,NW,317,0.0,5.0,55,0.00,,CLR,0.00,VWS V14.01,2013-08-21 20:17:00,
2013-08-21 15:22:00,87.2,68.5,29.88,WNW,294,0.0,5.0,54,0.00,,CLR,0.00,VWS V14.01,2013-08-21 20:22:00,
2013-08-21 15:28:00,87.2,68.0,29.88,NW,320,1.0,5.0,53,0.00,,CLR,0.00,VWS V14.01,2013-08-21 20:28:00,
2013-08-21 15:30:00,87.1,69.0,29.88,NW,320,0.0,5.0,55,0.00,,CLR,0.00,VWS V14.01,2013-08-21 20:30:00,
2013-08-21 15:33:00,86.9,68.3,29.88,NW,304,0.0,0.0,54,0.00,,CLR,0.00,VWS V14.01,2013-08-21 20:33:00,
2013-08-21 15:38:00,86.4,69.4,29.88,WNW,300,0.0,0.0,57,0.00,,CLR,0.00,VWS V14.01,2013-08-21 20:38:00,
2013-08-21 15:43:00,85.9,70.4,29.87,WNW,300,0.0,0.0,60,0.00,,CLR,0.00,VWS V14.01,2013-08-21 20:43:00,
2013-08-21 15:48:00,85.6,70.1,29.87,WNW,300,0.0,0.0,60,0.00,,CLR,0.00,VWS V14.01,2013-08-21 20:48:00,
2013-08-21 15:53:00,85.6,69.6,29.87,NE,45,1.0,2.0,59,0.00,,CLR,0.00,VWS V14.01,2013-08-21 20:53:00,
2013-08-21 15:58:00,85.9,68.9,29.87,NNW,329,0.0,2.0,57,0.00,,CLR,0.00,VWS V14.01,2013-08-21 20:58:00,
2013-08-21 16:00:00,86.0,69.0,29.87,NE,44,1.0,2.0,57,0.00,,CLR,0.00,VWS V14.01,2013-08-21 21:00:00,
2013-08-21 16:03:00,86.3,67.7,29.87,ENE,59,3.0,6.0,54,0.00,,CLR,0.00,VWS V14.01,2013-08-21 21:03:00,
2013-08-21 16:08:00,86.7,68.6,29.86,NNE,16,1.0,6.0,55,0.00,,CLR,0.00,VWS V14.01,2013-08-21 21:08:00,
2013-08-21 16:13:00,87.0,69.4,29.86,North,355,1.0,6.0,56,0.00,,CLR,0.00,VWS V14.01,2013-08-21 21:13:00,
2013-08-21 16:18:00,87.4,68.7,29.86,NW,313,0.0,6.0,54,0.00,,CLR,0.00,VWS V14.01,2013-08-21 21:18:00,
2013-08-21 16:23:00,87.5,70.4,29.86,WNW,296,0.0,6.0,57,0.00,,CLR,0.00,VWS V14.01,2013-08-21 21:23:00,
2013-08-21 16:28:00,87.5,67.2,29.86,West,270,1.0,6.0,51,0.00,,CLR,0.00,VWS V14.01,2013-08-21 21:28:00,
2013-08-21 16:30:00,87.5,68.3,29.86,West,270,0.0,6.0,53,0.00,,CLR,0.00,VWS V14.01,2013-08-21 21:30:00,
2013-08-21 16:34:00,87.3,67.0,29.86,NW,304,0.0,3.0,51,0.00,,CLR,0.00,VWS V14.01,2013-08-21 21:34:00,
2013-08-21 16:39:00,87.2,69.6,29.86,NW,304,0.0,3.0,56,0.00,,CLR,0.00,VWS V14.01,2013-08-21 21:39:00,
2013-08-21 16:44:00,87.1,70.0,29.86,NW,304,0.0,3.0,57,0.00,,CLR,0.00,VWS V14.01,2013-08-21 21:44:00,
2013-08-21 16:49:00,87.0,69.4,29.86,NW,304,0.0,3.0,56,0.00,,CLR,0.00,VWS V14.01,2013-08-21 21:49:00,
2013-08-21 16:54:00,86.8,69.2,29.86,NW,304,0.0,3.0,56,0.00,,CLR,0.00,VWS V14.01,2013-08-21 21:54:00,
2013-08-21 16:59:00,86.7,68.6,29.85,NW,304,0.0,3.0,55,0.00,,CLR,0.00,VWS V14.01,2013-08-21 21:59:00,
2013-08-21 17:00:00,86.7,68.6,29.85,NW,304,0.0,3.0,55,0.00,,CLR,0.00,VWS V14.01,2013-08-21 22:00:00,
2013-08-21 17:04:00,86.5,67.3,29.86,NW,304,0.0,0.0,53,0.00,,CLR,0.00,VWS V14.01,2013-08-21 22:04:00,
2013-08-21 17:09:00,86.3,68.8,29.86,NNE,26,0.0,0.0,56,0.00,,CLR,0.00,VWS V14.01,2013-08-21 22:09:00,
2013-08-21 17:14:00,86.2,69.2,29.86,SSE,154,0.0,1.0,57,0.00,,CLR,0.00,VWS V14.01,2013-08-21 22:14:00,
2013-08-21 17:19:00,86.0,68.5,29.86,SSE,155,0.0,1.0,56,0.00,,CLR,0.00,VWS V14.01,2013-08-21 22:19:00,
2013-08-21 17:24:00,85.9,69.9,29.86,SSE,155,0.0,1.0,59,0.00,,CLR,0.00,VWS V14.01,2013-08-21 22:24:00,
2013-08-21 17:29:00,85.8,67.8,29.86,SSE,152,1.0,1.0,55,0.00,,CLR,0.00,VWS V14.01,2013-08-21 22:29:00,
2013-08-21 17:30:00,85.8,69.8,29.86,SSE,152,0.0,1.0,59,0.00,,CLR,0.00,VWS V14.01,2013-08-21 22:30:00,
2013-08-21 17:34:00,85.9,67.9,29.86,SSE,152,0.0,1.0,55,0.00,,CLR,0.00,VWS V14.01,2013-08-21 22:34:00,
2013-08-21 17:40:00,85.9,69.9,29.86,SSE,152,0.0,1.0,59,0.00,,CLR,0.00,VWS V14.01,2013-08-21 22:40:00,
2013-08-21 17:45:00,85.8,70.3,29.86,East,101,0.0,1.0,60,0.00,,CLR,0.00,VWS V14.01,2013-08-21 22:45:00,
2013-08-21 17:50:00,85.6,69.6,29.86,SE,141,0.0,1.0,59,0.00,,CLR,0.00,VWS V14.01,2013-08-21 22:50:00,
2013-08-21 17:55:00,85.5,69.6,29.86,SSE,167,0.0,1.0,59,0.00,,CLR,0.00,VWS V14.01,2013-08-21 22:55:00,
2013-08-21 18:00:00,85.4,69.9,29.86,SSE,167,0.0,0.0,60,0.00,,CLR,0.00,VWS V14.01,2013-08-21 23:00:00,
2013-08-21 18:05:00,85.3,70.3,29.86,ENE,60,1.0,2.0,61,0.00,,CLR,0.00,VWS V14.01,2013-08-21 23:05:00,
2013-08-21 18:10:00,85.2,70.7,29.85,ESE,115,0.0,2.0,62,0.00,,CLR,0.00,VWS V14.01,2013-08-21 23:10:00,
2013-08-21 18:15:00,85.1,69.7,29.85,SE,143,0.0,2.0,60,0.00,,CLR,0.00,VWS V14.01,2013-08-21 23:15:00,
2013-08-21 18:20:00,85.1,70.2,29.86,SE,144,0.0,2.0,61,0.00,,CLR,0.00,VWS V14.01,2013-08-21 23:20:00,
2013-08-21 18:25:00,85.0,69.6,29.85,East,98,0.0,2.0,60,0.00,,CLR,0.00,VWS V14.01,2013-08-21 23:25:00,
2013-08-21 18:30:00,84.9,70.0,29.85,ESE,111,0.0,0.0,61,0.00,,CLR,0.00,VWS V14.01,2013-08-21 23:30:00,
2013-08-21 18:35:00,84.8,69.4,29.85,ESE,111,0.0,2.0,60,0.00,,CLR,0.00,VWS V14.01,2013-08-21 23:35:00,
2013-08-21 18:40:00,84.7,71.2,29.85,ESE,114,0.0,2.0,64,0.00,,CLR,0.00,VWS V14.01,2013-08-21 23:40:00,
2013-08-21 18:46:00,84.5,70.1,29.86,SSE,161,0.0,2.0,62,0.00,,CLR,0.00,VWS V14.01,2013-08-21 23:46:00,
2013-08-21 18:51:00,84.2,70.2,29.85,SSE,154,0.0,2.0,63,0.00,,CLR,0.00,VWS V14.01,2013-08-21 23:51:00,
2013-08-21 18:56:00,84.0,70.1,29.85,SSE,153,0.0,2.0,63,0.00,,CLR,0.00,VWS V14.01,2013-08-21 23:56:00,
2013-08-21 19:00:00,83.8,69.9,29.85,SSE,153,0.0,2.0,63,0.00,,CLR,0.00,VWS V14.01,2013-08-22 00:00:00,
2013-08-21 19:01:00,83.8,69.4,29.85,SSE,153,0.0,0.0,62,0.00,,CLR,0.00,VWS V14.01,2013-08-22 00:01:00,
2013-08-21 19:06:00,83.5,70.1,29.86,SSE,153,0.0,0.0,64,0.00,,CLR,0.00,VWS V14.01,2013-08-22 00:06:00,
2013-08-21 19:11:00,83.2,69.8,29.85,SSE,153,0.0,0.0,64,0.00,,CLR,0.00,VWS V14.01,2013-08-22 00:11:00,
2013-08-21 19:16:00,82.8,69.8,29.86,SSE,153,0.0,0.0,65,0.00,,CLR,0.00,VWS V14.01,2013-08-22 00:16:00,
2013-08-21 19:21:00,82.4,69.9,29.86,SSE,153,0.0,0.0,66,0.00,,CLR,0.00,VWS V14.01,2013-08-22 00:21:00,
2013-08-21 19:26:00,82.1,69.6,29.86,SSE,153,0.0,0.0,66,0.00,,CLR,0.00,VWS V14.01,2013-08-22 00:26:00,
2013-08-21 19:30:00,81.8,69.8,29.85,SSE,153,0.0,0.0,67,0.00,,CLR,0.00,VWS V14.01,2013-08-22 00:30:00,
2013-08-21 19:31:00,81.7,70.1,29.85,SSE,153,0.0,0.0,68,0.00,,CLR,0.00,VWS V14.01,2013-08-22 00:31:00,
2013-08-21 19:36:00,81.3,70.2,29.85,SSE,153,0.0,0.0,69,0.00,,CLR,0.00,VWS V14.01,2013-08-22 00:36:00,
2013-08-21 19:41:00,80.9,70.2,29.85,SSE,153,0.0,0.0,70,0.00,,CLR,0.00,VWS V14.01,2013-08-22 00:41:00,
2013-08-21 19:46:00,80.6,70.3,29.85,SSE,153,0.0,0.0,71,0.00,,CLR,0.00,VWS V14.01,2013-08-22 00:46:00,
2013-08-21 19:52:00,80.2,70.4,29.85,SSE,153,0.0,0.0,72,0.00,,CLR,0.00,VWS V14.01,2013-08-22 00:52:00,
2013-08-21 19:57:00,79.8,70.0,29.85,SSE,153,0.0,0.0,72,0.00,,CLR,0.00,VWS V14.01,2013-08-22 00:57:00,
2013-08-21 20:00:00,79.7,70.3,29.85,SSE,153,0.0,0.0,73,0.00,,CLR,0.00,VWS V14.01,2013-08-22 01:00:00,
2013-08-21 20:02:00,79.5,70.1,29.85,SSE,153,0.0,0.0,73,0.00,,CLR,0.00,VWS V14.01,2013-08-22 01:02:00,
2013-08-21 20:07:00,79.2,70.2,29.85,SSE,153,0.0,0.0,74,0.00,,CLR,0.00,VWS V14.01,2013-08-22 01:07:00,
2013-08-21 20:12:00,78.9,69.9,29.85,SSE,153,0.0,0.0,74,0.00,,CLR,0.00,VWS V14.01,2013-08-22 01:12:00,
2013-08-21 20:17:00,78.7,70.1,29.85,SSE,153,0.0,0.0,75,0.00,,CLR,0.00,VWS V14.01,2013-08-22 01:17:00,
2013-08-21 20:22:00,78.4,70.2,29.85,SSE,153,0.0,0.0,76,0.00,,CLR,0.00,VWS V14.01,2013-08-22 01:22:00,
2013-08-21 20:27:00,78.2,69.6,29.85,SSE,153,0.0,0.0,75,0.00,,CLR,0.00,VWS V14.01,2013-08-22 01:27:00,
2013-08-21 20:30:00,78.1,69.9,29.86,SSE,153,0.0,0.0,76,0.00,,CLR,0.00,VWS V14.01,2013-08-22 01:30:00,
2013-08-21 20:32:00,78.0,69.8,29.85,SSE,153,0.0,0.0,76,0.00,,CLR,0.00,VWS V14.01,2013-08-22 01:32:00,
2013-08-21 20:37:00,77.8,70.0,29.86,SSE,153,0.0,0.0,77,0.00,,CLR,0.00,VWS V14.01,2013-08-22 01:37:00,
2013-08-21 20:42:00,77.5,69.3,29.86,SSE,153,0.0,0.0,76,0.00,,CLR,0.00,VWS V14.01,2013-08-22 01:42:00,
2013-08-21 20:47:00,77.3,69.5,29.86,SSE,153,0.0,0.0,77,0.00,,CLR,0.00,VWS V14.01,2013-08-22 01:47:00,
2013-08-21 20:52:00,77.1,69.3,29.86,SSE,153,0.0,0.0,77,0.00,,CLR,0.00,VWS V14.01,2013-08-22 01:52:00,
2013-08-21 20:58:00,76.9,69.5,29.86,SSE,153,0.0,0.0,78,0.00,,CLR,0.00,VWS V14.01,2013-08-22 01:58:00,
2013-08-21 21:00:00,76.9,69.9,29.86,SSE,153,0.0,0.0,79,0.00,,CLR,0.00,VWS V14.01,2013-08-22 02:00:00,
2013-08-21 21:03:00,76.7,69.7,29.86,SSE,153,0.0,0.0,79,0.00,,CLR,0.00,VWS V14.01,2013-08-22 02:03:00,
2013-08-21 21:08:00,76.5,69.5,29.87,SSE,153,0.0,0.0,79,0.00,,CLR,0.00,VWS V14.01,2013-08-22 02:08:00,
2013-08-21 21:13:00,76.3,69.7,29.86,SSE,153,0.0,0.0,80,0.00,,CLR,0.00,VWS V14.01,2013-08-22 02:13:00,
2013-08-21 21:18:00,76.1,69.5,29.86,SSE,153,0.0,0.0,80,0.00,,CLR,0.00,VWS V14.01,2013-08-22 02:18:00,
2013-08-21 21:23:00,75.9,69.3,29.87,SSE,153,0.0,0.0,80,0.00,,CLR,0.00,VWS V14.01,2013-08-22 02:23:00,
2013-08-21 21:28:00,75.7,69.5,29.87,SSE,153,0.0,0.0,81,0.00,,CLR,0.00,VWS V14.01,2013-08-22 02:28:00,
2013-08-21 21:30:00,75.7,69.5,29.87,SSE,153,0.0,0.0,81,0.00,,CLR,0.00,VWS V14.01,2013-08-22 02:30:00,
2013-08-21 21:33:00,75.5,69.3,29.87,SSE,153,0.0,0.0,81,0.00,,CLR,0.00,VWS V14.01,2013-08-22 02:33:00,
2013-08-21 21:38:00,75.4,69.5,29.87,SSE,153,0.0,0.0,82,0.00,,CLR,0.00,VWS V14.01,2013-08-22 02:38:00,
2013-08-21 21:43:00,75.3,69.1,29.88,SSE,153,0.0,0.0,81,0.00,,CLR,0.00,VWS V14.01,2013-08-22 02:43:00,
2013-08-21 21:48:00,75.3,69.4,29.88,SSE,153,0.0,0.0,82,0.00,,CLR,0.00,VWS V14.01,2013-08-22 02:48:00,
2013-08-21 21:53:00,75.2,69.3,29.88,SSE,153,0.0,0.0,82,0.00,,CLR,0.00,VWS V14.01,2013-08-22 02:53:00,
2013-08-21 21:58:00,75.1,68.9,29.88,SSE,153,0.0,0.0,81,0.00,,CLR,0.00,VWS V14.01,2013-08-22 02:58:00,
2013-08-21 22:00:00,75.1,68.9,29.88,SSE,153,0.0,0.0,81,0.00,,CLR,0.00,VWS V14.01,2013-08-22 03:00:00,
2013-08-21 22:04:00,75.0,68.8,29.88,SSE,153,0.0,0.0,81,0.00,,CLR,0.00,VWS V14.01,2013-08-22 03:04:00,
2013-08-21 22:09:00,74.9,69.4,29.88,SSE,153,0.0,0.0,83,0.00,,CLR,0.00,VWS V14.01,2013-08-22 03:09:00,
2013-08-21 22:14:00,74.8,68.9,29.88,SSE,153,0.0,0.0,82,0.00,,CLR,0.00,VWS V14.01,2013-08-22 03:14:00,
2013-08-21 22:19:00,74.6,69.1,29.88,SSE,153,0.0,0.0,83,0.00,,CLR,0.00,VWS V14.01,2013-08-22 03:19:00,
2013-08-21 22:24:00,74.4,68.9,29.88,SSE,153,0.0,0.0,83,0.00,,CLR,0.00,VWS V14.01,2013-08-22 03:24:00,
2013-08-21 22:29:00,74.3,68.8,29.88,SSE,153,0.0,0.0,83,0.00,,CLR,0.00,VWS V14.01,2013-08-22 03:29:00,
2013-08-21 22:30:00,74.3,68.8,29.88,SSE,153,0.0,0.0,83,0.00,,CLR,0.00,VWS V14.01,2013-08-22 03:30:00,
2013-08-21 22:34:00,74.1,68.6,29.88,SSE,153,0.0,0.0,83,0.00,,CLR,0.00,VWS V14.01,2013-08-22 03:34:00,
2013-08-21 22:39:00,74.0,68.9,29.88,SSE,153,0.0,0.0,84,0.00,,CLR,0.00,VWS V14.01,2013-08-22 03:39:00,
2013-08-21 22:44:00,73.9,68.4,29.88,SSE,153,0.0,0.0,83,0.00,,CLR,0.00,VWS V14.01,2013-08-22 03:44:00,
2013-08-21 22:49:00,73.8,68.7,29.88,SSE,153,0.0,0.0,84,0.00,,CLR,0.00,VWS V14.01,2013-08-22 03:49:00,
2013-08-21 22:54:00,73.8,68.7,29.88,SSE,153,0.0,0.0,84,0.00,,CLR,0.00,VWS V14.01,2013-08-22 03:54:00,
2013-08-21 22:59:00,73.7,68.6,29.88,SSE,153,0.0,0.0,84,0.00,,CLR,0.00,VWS V14.01,2013-08-22 03:59:00,
2013-08-21 23:00:00,73.7,68.6,29.88,SSE,153,0.0,0.0,84,0.00,,CLR,0.00,VWS V14.01,2013-08-22 04:00:00,
2013-08-21 23:01:00,73.7,68.6,29.88,SSE,153,0.0,0.0,84,0.00,,CLR,0.00,VWS V14.01,2013-08-22 04:01:00,
2013-08-21 23:02:00,73.7,68.9,29.88,SSE,153,0.0,0.0,85,0.00,,CLR,0.00,VWS V14.01,2013-08-22 04:02:00,
2013-08-21 23:07:00,73.6,68.8,29.88,SSE,153,0.0,0.0,85,0.00,,CLR,0.00,VWS V14.01,2013-08-22 04:07:00,
2013-08-21 23:12:00,73.5,68.4,29.88,SSE,153,0.0,0.0,84,0.00,,CLR,0.00,VWS V14.01,2013-08-22 04:12:00,
2013-08-21 23:17:00,73.4,68.6,29.88,SSE,153,0.0,0.0,85,0.00,,CLR,0.00,VWS V14.01,2013-08-22 04:17:00,
2013-08-21 23:23:00,73.3,68.9,29.88,SSE,153,0.0,0.0,86,0.00,,CLR,0.00,VWS V14.01,2013-08-22 04:23:00,
2013-08-21 23:28:00,73.2,68.4,29.88,SSE,153,0.0,0.0,85,0.00,,CLR,0.00,VWS V14.01,2013-08-22 04:28:00,
2013-08-21 23:30:00,73.2,68.8,29.89,SSE,153,0.0,0.0,86,0.00,,CLR,0.00,VWS V14.01,2013-08-22 04:30:00,
2013-08-21 23:33:00,73.2,68.8,29.88,SSE,153,0.0,0.0,86,0.00,,CLR,0.00,VWS V14.01,2013-08-22 04:33:00,
2013-08-21 23:38:00,73.2,68.8,29.89,SSE,153,0.0,0.0,86,0.00,,CLR,0.00,VWS V14.01,2013-08-22 04:38:00,
2013-08-21 23:43:00,73.1,68.7,29.89,SSE,153,0.0,0.0,86,0.00,,CLR,0.00,VWS V14.01,2013-08-22 04:43:00,
2013-08-21 23:48:00,73.1,69.0,29.89,SSE,153,0.0,0.0,87,0.00,,CLR,0.00,VWS V14.01,2013-08-22 04:48:00,
2013-08-21 23:53:00,73.0,68.9,29.88,SSE,153,0.0,0.0,87,0.00,,CLR,0.00,VWS V14.01,2013-08-22 04:53:00,
2013-08-21 23:58:00,72.9,68.8,29.88,SSE,153,0.0,0.0,87,0.00,,CLR,0.00,VWS V14.01,2013-08-22 04:58:00,